Wind_Speed
23 26 29 34 42 43 40 38 34 32 30 29 29 28 24 21 17 14 13 15 15 16 17 18 16 13 12 11 11 6 11 17 19 14 11 14 15 16 14 17 17 17 15 15 16 20 23 22 23
23 29 33 36 42 42 45 41 39 39 37 38 38 34 28 20 18 16 15 17 16 14 13 14 20 23 21 13 7 12 17 19 17 14 14 12 15 16 16 18 16 15 15 16 16 16 18 19 26
26 28 33 37 41 42 44 45 45 43 42 42 41 36 32 30 28 24 21 20 19 19 15 20 25 23 15 12 14 17 19 16 14 12 12 14 14 14 16 17 15 13 13 12 12 12 15 22 25
25 30 32 35 40 41 42 44 43 45 48 49 46 43 40 38 35 33 31 30 29 26 25 27 23 18 18 17 20 19 16 14 11 10 10 12 14 16 16 19 17 15 13 10 5 9 16 18 32
20 25 29 34 35 38 39 41 43 44 46 48 47 45 44 41 39 38 35 33 32 30 27 24 22 21 18 22 18 14 12 11 11 11 13 16 18 17 16 20 16 14 13 13 13 17 15 17 22
15 19 25 30 35 32 35 37 38 42 40 43 44 44 43 40 39 37 35 33 30 29 29 26 23 21 22 19 16 12 10 10 11 13 16 18 17 15 16 18 15 12 17 23 16 10 11 14 13
11 15 20 26 28 30 31 31 35 39 40 38 40 39 40 40 38 37 34 30 27 26 26 25 24 24 20 17 13 12 11 9 10 14 16 16 15 14 17 16 15 9 11 12 12 14 12 14 12
14 19 17 20 25 24 28 30 28 31 33 35 34 33 34 34 35 35 33 30 28 26 25 23 21 18 14 13 12 12 12 14 11 9 11 14 14 14 16 14 16 8 8 16 13 15 15 16 15
16 19 22 26 24 20 22 26 29 29 27 27 28 31 28 27 28 29 29 28 26 24 22 23 20 18 17 13 11 8 7 8 10 8 10 11 10 10 11 13 13 13 10 16 14 6 8 12 11
17 18 19 24 24 22 21 18 18 24 26 23 21 22 23 23 21 21 22 23 22 21 19 15 14 13 11 9 8 9 9 10 9 9 11 12 12 7 6 7 8 9 11 10 4 7 9 12 10
14 21 19 23 22 22 18 18 16 22 26 20 22 20 17 16 16 16 16 14 16 15 15 14 13 12 11 8 7 7 10 11 10 10 12 14 15 11 6 7 9 9 6 8 7 10 9 7 9
16 17 14 20 18 22 21 20 20 19 17 17 17 18 16 14 12 10 10 11 10 9 9 9 8 7 5 5 5 4 6 8 9 6 6 8 10 14 10 8 8 9 6 4 5 8 8 3 6
8 9 13 19 18 23 20 17 21 20 16 14 15 18 14 12 12 11 8 7 7 7 8 9 10 11 12 8 3 5 6 6 6 7 8 5 6 7 9 8 9 12 9 6 8 9 8 8 8
4 8 14 14 14 18 15 17 19 22 19 19 16 12 17 7 11 9 10 10 11 9 8 10 11 14 14 15 14 13 11 11 12 12 10 10 9 7 7 7 6 6 7 8 8 9 8 7 8
3 8 12 11 14 16 16 9 24 19 16 21 24 19 11 9 6 8 11 14 10 9 11 12 13 20 22 22 22 21 21 20 19 18 19 20 19 16 12 9 11 11 10 10 11 13 14 15 9
8 9 12 5 16 20 20 18 19 20 22 22 17 16 7 7 8 11 10 14 18 15 17 17 16 19 20 22 24 25 25 24 25 26 25 25 26 25 23 20 17 15 13 12 13 13 15 14 13
6 12 9 6 16 18 20 26 23 23 24 23 21 16 14 12 11 13 16 22 23 22 22 26 29 30 31 26 27 27 30 31 31 30 29 27 26 27 28 29 28 25 22 20 19 18 16 16 17
7 13 10 15 18 18 20 27 26 23 23 22 23 20 16 13 15 19 23 28 31 30 32 36 33 34 36 33 31 31 34 33 32 33 33 32 31 32 32 33 31 29 29 26 25 24 20 20 19
11 12 17 16 17 20 22 28 21 23 23 23 23 22 20 22 25 29 32 29 32 38 41 38 37 35 34 33 34 36 34 31 33 34 34 33 34 36 37 37 35 33 32 33 30 30 29 23 24
17 17 17 21 24 28 27 27 24 23 20 25 29 29 29 28 30 33 35 38 38 37 36 36 32 32 33 34 31 31 31 31 33 38 39 38 39 41 41 38 38 38 36 34 33 33 33 33 32
21 24 26 27 29 30 29 28 30 28 26 31 34 32 31 30 31 32 34 35 33 31 30 31 30 31 31 30 31 33 33 33 31 33 36 37 37 39 43 43 44 43 41 40 37 40 41 40 37
25 24 26 28 32 33 34 34 32 31 33 35 34 33 34 33 32 33 35 34 31 29 30 31 32 32 30 31 33 34 35 35 36 34 35 38 40 34 31 32 34 38 41 44 45 47 47 43 43
28 31 34 39 39 38 39 35 38 40 35 36 35 36 37 36 35 35 36 35 33 33 32 32 33 33 32 32 31 31 33 35 33 38 42 44 42 44 40 39 38 38 38 41 42 42 43 45 46
33 36 38 38 39 38 38 39 38 38 43 40 37 39 40 40 41 40 39 36 36 36 34 33 35 35 34 34 32 32 32 33 33 35 38 45 41 41 43 45 43 38 39 38 34 34 35 41 43
35 35 34 37 37 37 36 36 37 42 43 40 39 40 38 36 36 36 37 39 39 39 39 38 38 37 36 34 35 35 34 33 34 36 39 42 48 47 44 41 38 37 36 32 30 32 41 48 47
34 32 30 32 30 33 41 42 40 42 44 44 42 41 41 39 37 36 37 36 35 35 37 40 38 36 34 35 36 36 37 38 38 41 42 44 47 47 50 43 42 35 36 34 35 34 39 51 49
40 40 37 38 39 34 38 43 42 44 46 48 48 47 46 42 39 37 38 39 38 38 40 39 37 37 38 36 37 39 40 42 42 45 46 50 49 49 49 49 46 39 41 42 41 38 42 34 42
43 42 43 42 42 38 43 42 43 47 48 48 49 48 46 43 40 39 40 41 41 40 39 40 40 41 41 41 42 42 43 46 45 46 48 49 53 51 52 51 48 49 56 50 53 48 52 57 60
46 47 50 48 45 45 49 48 47 47 45 45 47 49 49 47 44 43 42 43 44 45 45 44 43 45 46 47 47 48 48 50 48 49 50 51 54 55 53 56 57 56 60 62 63 59 59 65 67
49 50 51 52 51 49 49 52 48 45 45 46 49 49 48 47 46 43 43 46 48 49 49 48 48 49 49 50 51 49 48 51 50 49 47 51 53 55 56 63 61 56 55 53 59 62 60 61 59
Wind_Direction
35 41 42 43 38 38 41 42 54 61 69 73 76 81 87 94 109 121 142 156 167 172 179 186 181 184 194 175 159 230 147 149 128 107 76 86 47 33 27 26 42 107 89 77 79 73 65 48 51
52 49 48 50 47 44 48 52 55 60 63 67 67 73 79 90 105 117 133 145 147 150 156 154 133 135 139 146 174 142 146 134 126 92 80 64 41 38 34 36 63 104 97 81 74 75 56 52 50
60 55 49 51 53 49 51 56 61 64 64 65 64 68 73 82 91 101 111 120 123 126 133 131 132 139 139 136 141 147 138 131 120 93 71 50 35 28 33 43 66 94 108 104 71 69 63 50 48
58 56 51 49 56 55 51 50 60 64 67 66 66 68 72 76 84 91 98 103 107 111 116 121 122 121 123 133 144 142 136 129 113 87 61 47 31 34 45 48 65 86 103 112 91 53 48 57 45
54 52 49 53 54 58 57 52 49 57 64 68 70 70 69 72 78 86 92 98 105 108 112 116 118 117 116 125 125 127 130 105 82 70 53 50 56 53 56 53 64 82 87 95 87 72 62 44 43
47 37 46 47 54 56 63 58 52 48 59 66 69 72 74 74 75 77 83 90 97 105 110 115 117 120 125 119 110 100 84 76 66 56 58 66 63 56 63 58 63 96 99 93 88 92 82 66 68
46 39 40 45 42 50 61 60 55 52 55 58 64 68 73 75 75 77 81 83 90 98 104 110 120 125 123 110 89 59 55 49 60 56 65 58 53 55 62 60 63 110 119 104 89 76 61 37 54
40 37 29 38 32 34 52 56 59 60 53 52 56 62 72 75 75 78 80 82 84 87 88 96 103 106 98 81 66 58 51 49 52 55 52 44 40 57 64 63 67 102 107 108 125 95 68 34 21
52 37 43 38 46 39 50 53 46 43 58 57 52 52 55 63 76 79 79 80 82 85 85 87 91 94 88 81 82 74 53 39 42 27 22 27 41 41 49 49 59 96 112 133 125 63 17 354 339
36 48 45 48 49 54 53 52 47 43 41 47 66 64 58 52 52 63 75 79 82 85 85 88 87 93 84 71 67 59 43 34 25 14 15 10 11 13 18 30 29 58 108 180 243 310 344 48 49
51 61 50 42 39 43 37 39 36 28 39 46 42 52 65 60 48 40 41 54 59 60 80 85 76 76 73 64 47 43 44 48 44 34 32 27 27 6 350 14 11 357 87 62 308 323 347 88 55
69 60 52 37 29 28 34 24 13 28 27 44 40 34 35 49 55 44 28 24 24 29 34 35 36 31 31 53 48 20 1 7 17 35 41 34 31 28 13 353 10 6 353 24 249 314 349 5 49
47 38 3 35 30 19 21 25 11 3 24 27 23 24 18 22 35 30 21 20 5 1 1 353 342 331 326 318 310 306 306 315 336 344 338 357 11 14 13 15 23 32 9 357 347 334 326 309 326
5 13 23 27 39 20 10 356 6 8 0 3 4 9 358 1 358 14 11 357 345 348 345 346 345 342 327 306 287 292 287 287 294 299 301 310 319 337 335 324 319 347 344 336 327 316 311 302 303
45 63 28 29 25 13 350 342 336 354 349 345 337 355 10 2 7 351 349 350 334 316 316 326 345 344 330 320 309 298 283 281 279 281 291 295 299 297 290 287 284 291 301 297 290 294 287 290 296
359 8 11 19 6 4 5 1 346 346 343 344 336 335 325 339 334 335 329 333 345 331 319 304 313 317 314 296 285 286 284 283 284 286 283 280 282 286 288 280 276 271 272 282 277 285 273 281 285
345 339 322 349 336 340 346 347 344 350 345 344 344 331 330 317 326 325 315 308 309 301 306 309 296 301 309 301 302 298 284 271 272 274 273 273 277 279 280 280 283 285 285 281 279 275 267 276 280
333 325 340 336 337 329 330 333 336 337 339 333 330 331 318 296 299 295 299 306 301 294 289 295 295 297 302 302 287 287 284 277 271 269 267 272 273 275 277 275 277 279 283 282 277 266 262 269 276
302 318 326 331 340 339 330 328 330 339 340 342 342 333 315 298 292 288 292 290 284 283 286 292 299 299 296 295 289 285 276 284 285 280 276 273 272 270 273 275 274 275 274 276 272 266 267 260 264
289 322 318 327 327 328 325 323 319 321 316 326 331 323 319 311 299 294 293 298 303 302 299 301 299 291 290 293 295 297 290 283 279 278 281 282 279 273 270 271 275 274 271 272 273 274 275 269 265
297 308 311 314 316 317 317 319 321 318 311 315 319 318 315 310 305 302 301 302 304 304 304 302 301 300 300 296 293 291 293 294 285 276 275 275 283 282 275 273 271 271 273 272 271 273 275 273 271
298 308 310 315 318 316 316 316 315 308 310 314 315 313 311 310 309 306 306 304 303 304 305 305 304 303 299 297 296 294 292 292 289 287 281 273 274 275 279 279 280 277 278 276 272 270 269 272 271
298 301 304 307 308 309 308 313 309 310 312 316 315 314 311 310 310 307 302 300 303 305 302 300 297 293 292 293 291 290 287 284 286 282 280 275 271 271 279 278 281 284 283 282 273 272 268 266 268
295 299 301 307 310 309 310 311 311 307 312 314 314 314 314 313 311 308 307 305 301 297 296 295 294 295 296 294 291 288 287 284 282 279 282 276 271 277 281 283 283 284 281 278 281 285 275 267 271
291 297 307 305 304 307 307 311 309 306 306 307 310 311 309 304 300 299 299 298 298 298 300 302 300 300 297 295 295 293 290 289 286 280 280 279 278 283 285 278 273 276 277 274 264 269 268 268 271
296 296 301 311 305 309 309 311 308 303 303 305 307 306 303 299 291 288 290 289 289 288 291 295 292 290 288 288 287 287 285 285 283 284 283 282 282 280 280 276 274 266 264 266 256 255 263 268 268
294 297 293 304 305 305 308 306 303 303 305 305 304 303 300 296 293 294 294 295 292 291 288 285 285 287 286 285 288 290 290 288 288 285 283 285 283 285 280 276 266 259 255 261 262 265 252 242 257
293 294 295 297 298 297 305 303 302 301 302 301 301 299 296 295 292 291 290 290 290 288 285 286 287 288 289 289 289 293 295 292 293 294 292 287 285 284 279 272 265 256 258 256 255 254 251 255 261
294 294 295 294 295 293 301 299 298 297 295 291 289 288 288 289 289 289 290 291 290 290 289 287 288 288 288 287 287 291 293 293 294 294 294 289 285 282 279 273 266 257 255 254 250 252 259 259 263
291 293 294 295 296 297 298 296 295 292 289 287 287 286 286 285 284 286 290 290 290 288 286 286 286 286 284 285 286 287 288 290 291 295 295 295 287 286 285 286 267 254 247 250 249 262 265 255 264
Height
11005 11000 10994 10988 10980 10973 10963 10957 10950 10943 10940 10937 10934 10933 10933 10932 10935 10937 10939 10942 10946 10950 10955 10960 10964 10968 10971 10974 10979 10980 10981 10984 10985 10986 10986 10985 10983 10982 10980 10977 10974 10975 10976 10978 10978 10977 10975 10973 10969
11007 11002 10998 10991 10985 10980 10972 10965 10957 10953 10949 10944 10940 10937 10937 10938 10938 10940 10943 10945 10948 10952 10957 10961 10965 10970 10974 10977 10980 10981 10983 10985 10986 10988 10988 10986 10984 10983 10982 10979 10976 10976 10979 10980 10980 10979 10978 10976 10974
11009 11005 11001 10995 10989 10985 10979 10971 10965 10960 10957 10951 10947 10945 10945 10944 10943 10945 10947 10948 10951 10955 10959 10963 10968 10973 10977 10980 10981 10983 10985 10987 10989 10990 10989 10987 10985 10985 10983 10981 10979 10980 10982 10983 10982 10982 10982 10980 10978
11011 11007 11005 11001 10993 10989 10984 10978 10974 10969 10964 10959 10956 10955 10954 10953 10951 10952 10953 10954 10957 10960 10963 10966 10971 10975 10979 10982 10984 10986 10988 10990 10991 10992 10991 10988 10986 10985 10985 10983 10983 10983 10985 10986 10985 10985 10985 10984 10981
11015 11011 11008 11005 10998 10994 10990 10986 10983 10977 10971 10968 10966 10965 10965 10965 10963 10961 10961 10962 10965 10967 10970 10973 10976 10980 10982 10986 10989 10991 10991 10991 10992 10993 10992 10989 10988 10988 10988 10986 10985 10987 10987 10988 10989 10988 10986 10985 10985
11017 11015 11011 11008 11004 11001 10996 10993 10989 10986 10982 10978 10976 10974 10974 10975 10973 10971 10971 10973 10974 10976 10977 10978 10981 10984 10987 10989 10991 10992 10992 10992 10994 10995 10993 10991 10992 10991 10990 10988 10988 10989 10990 10991 10990 10989 10988 10986 10986
11019 11017 11014 11012 11010 11008 11003 11000 10997 10993 10991 10988 10985 10983 10982 10981 10981 10979 10979 10981 10983 10984 10984 10985 10987 10989 10991 10993 10995 10996 10995 10996 10997 10997 10996 10994 10994 10992 10991 10990 10991 10991 10992 10993 10993 10991 10991 10990 10990
11021 11020 11017 11014 11013 11013 11009 11006 11003 11000 10998 10996 10994 10992 10991 10989 10988 10987 10987 10988 10989 10990 10990 10991 10993 10995 10997 10998 10999 10999 10999 10999 10999 10999 10998 10997 10995 10993 10993 10992 10992 10992 10993 10994 10994 10994 10993 10993 10993
11023 11021 11019 11017 11015 11016 11013 11010 11009 11006 11003 11002 11000 10998 10997 10997 10995 10994 10994 10993 10994 10995 10996 10996 10998 10999 11000 11001 11001 11001 11000 10999 10999 10999 10999 10998 10997 10995 10995 10994 10994 10994 10995 10995 10995 10996 10995 10996 10994
11024 11023 11023 11021 11018 11015 11016 11015 11013 11009 11007 11006 11004 11004 11003 11002 11002 11002 10999 10999 10999 10999 11000 11001 11001 11002 11003 11003 11003 11003 11002 11000 11000 10999 10999 11000 10999 10998 10996 10997 10996 10997 10998 10997 10997 10997 10997 10996 10995
11027 11026 11025 11022 11021 11019 11018 11019 11020 11014 11010 11011 11010 11007 11006 11006 11006 11005 11005 11005 11004 11004 11004 11003 11004 11004 11003 11003 11004 11003 11003 11002 11002 11001 11001 11001 11000 10998 10998 10998 10998 10997 10996 10998 10996 10997 10997 10996 10997
11030 11030 11028 11024 11023 11022 11020 11020 11020 11018 11017 11012 11011 11011 11010 11008 11008 11008 11007 11006 11006 11006 11006 11006 11006 11006 11005 11005 11004 11003 11003 11003 11003 11002 11002 11001 11001 10999 10997 10996 10998 10998 10998 10997 10998 10997 10997 10997 10996
11031 11031 11029 11027 11027 11024 11022 11022 11021 11019 11020 11018 11016 11013 11011 11010 11010 11009 11008 11007 11007 11007 11006 11006 11006 11006 11006 11006 11004 11003 11002 11001 11002 11001 11001 11001 11000 10998 10997 10996 10996 10997 10997 10996 10997 10997 10997 10996 10995
11032 11033 11032 11029 11029 11027 11025 11024 11021 11018 11016 11016 11017 11015 11013 11011 11010 11009 11009 11008 11007 11007 11006 11006 11006 11006 11005 11005 11004 11003 11001 11000 11000 11000 10999 10999 10999 10998 10996 10995 10995 10995 10995 10994 10993 10994 10993 10993 10994
11034 11033 11031 11029 11029 11027 11026 11025 11025 11024 11021 11017 11014 11015 11013 11012 11010 11008 11007 11007 11006 11006 11005 11005 11004 11003 11002 11001 11001 11001 10999 10998 10997 10997 10997 10996 10996 10996 10995 10994 10993 10994 10993 10992 10992 10991 10991 10991 10990
11034 11033 11032 11030 11028 11028 11028 11025 11024 11022 11020 11017 11014 11011 11013 11011 11011 11010 11008 11007 11006 11004 11002 11001 10999 10999 10998 10996 10995 10994 10995 10994 10993 10992 10992 10992 10992 10992 10991 10991 10991 10991 10991 10990 10989 10989 10988 10989 10988
11034 11033 11032 11031 11030 11027 11026 11025 11022 11020 11018 11015 11014 11012 11009 11007 11008 11008 11007 11006 11005 11003 11001 10999 10994 10991 10989 10989 10988 10987 10986 10986 10986 10985 10985 10985 10986 10986 10985 10985 10986 10986 10987 10987 10986 10984 10984 10984 10985
11034 11033 11033 11033 11030 11027 11025 11023 11020 11018 11016 11014 11012 11011 11010 11007 11004 11003 11002 11000 10998 10996 10994 10992 10991 10988 10985 10982 10981 10979 10976 10976 10977 10977 10977 10978 10979 10978 10978 10977 10978 10978 10979 10981 10981 10981 10980 10980 10981
11032 11033 11033 11032 11031 11028 11025 11022 11018 11015 11013 11012 11009 11008 11006 11005 11002 10999 10996 10995 10992 10989 10985 10983 10980 10979 10977 10974 10974 10974 10972 10968 10967 10967 10968 10969 10970 10970 10970 10970 10969 10970 10972 10972 10974 10974 10975 10976 10975
11030 11031 11029 11027 11027 11025 11022 11020 11017 11016 11013 11010 11007 11005 11001 10999 10995 10992 10990 10987 10983 10980 10977 10975 10973 10970 10967 10965 10965 10964 10965 10965 10963 10960 10959 10958 10959 10959 10960 10960 10961 10962 10963 10963 10965 10966 10966 10968 10968
11029 11028 11026 11024 11023 11021 11018 11016 11012 11009 11008 11005 11001 10998 10996 10994 10991 10987 10984 10981 10978 10974 10971 10968 10967 10964 10960 10958 10957 10955 10954 10954 10955 10955 10953 10950 10948 10948 10949 10951 10951 10952 10954 10954 10954 10956 10957 10958 10959
11026 11023 11021 11019 11017 11015 11013 11010 11007 11004 11002 10997 10994 10992 10989 10988 10985 10981 10977 10974 10973 10969 10966 10963 10960 10958 10955 10953 10950 10947 10946 10945 10942 10943 10943 10942 10941 10940 10939 10939 10941 10941 10942 10943 10942 10943 10943 10946 10948
11020 11018 11015 11013 11011 11008 11005 11003 11000 10997 10994 10992 10988 10984 10981 10980 10976 10974 10971 10968 10965 10962 10960 10958 10955 10952 10949 10947 10944 10941 10939 10938 10936 10933 10930 10930 10931 10930 10931 10930 10931 10931 10931 10931 10932 10932 10932 10934 10936
11016 11014 11011 11007 11003 11001 10999 10997 10993 10989 10986 10985 10980 10977 10973 10969 10966 10964 10961 10958 10956 10954 10952 10951 10947 10943 10941 10939 10937 10935 10932 10931 10928 10926 10923 10920 10920 10920 10922 10922 10922 10922 10921 10921 10922 10922 10922 10923 10924
11011 11010 11007 11005 11001 10998 10993 10992 10989 10983 10979 10978 10975 10971 10967 10965 10960 10956 10954 10951 10948 10945 10942 10940 10938 10935 10933 10930 10928 10926 10924 10921 10918 10917 10913 10911 10911 10911 10912 10913 10912 10912 10912 10912 10912 10914 10914 10914 10913
11006 11005 11005 11002 10999 10994 10989 10985 10982 10976 10972 10969 10967 10965 10962 10958 10955 10952 10949 10947 10945 10942 10939 10934 10930 10928 10926 10923 10921 10918 10914 10911 10908 10905 10903 10900 10900 10899 10897 10898 10898 10899 10900 10901 10901 10903 10905 10903 10901
10998 10998 10998 10996 10994 10992 10987 10981 10975 10969 10964 10959 10955 10954 10952 10950 10947 10943 10941 10937 10937 10934 10931 10927 10923 10920 10917 10914 10911 10908 10903 10899 10897 10894 10891 10888 10886 10885 10884 10882 10884 10885 10887 10887 10891 10888 10891 10888 10890
10992 10990 10988 10988 10988 10985 10980 10976 10971 10963 10956 10950 10945 10942 10940 10938 10937 10936 10934 10931 10927 10924 10922 10917 10913 10909 10906 10902 10899 10896 10892 10887 10884 10881 10877 10875 10871 10869 10867 10865 10866 10867 10868 10872 10875 10877 10878 10878 10878
10983 10981 10978 10977 10979 10977 10972 10965 10963 10957 10951 10945 10940 10934 10931 10929 10927 10926 10924 10920 10917 10914 10911 10907 10903 10898 10895 10892 10889 10886 10880 10875 10871 10867 10863 10860 10856 10852 10851 10849 10847 10846 10846 10852 10857 10860 10862 10863 10864
10974 10971 10968 10965 10964 10963 10959 10952 10952 10946 10940 10935 10930 10925 10922 10921 10919 10917 10913 10910 10906 10903 10899 10896 10892 10889 10886 10881 10878 10875 10870 10864 10859 10855 10849 10843 10837 10836 10833 10826 10826 10828 10828 10835 10839 10841 10844 10846 10848